STARLINK-34853, 65892

Orbit data source: Space-Track

STARLINK-34853, 65892 is a payload satellite owned by SpaceX/Seattle (US) in LEO that was launched on Tue, 07 Oct 2025 UTC via an FALCON 9 launch vehicle from the Air Force Eastern Test Range (AFETR). Payload-class satellites include a variety of spacecraft equipped with specific instruments for various scientific and technological missions. These include communications satellites like Starlink; space stations such as the ISS; scientific satellites like the Hubble; Earth observation satellites from companies like Planet Labs, Umbra, and HawkEye 360; GPS; miniature CubeSats for education and research; and military/defense satellites.

Loading next visibility...
Identifier
65892, 2025-224L
Orbit
LEO
Country
Flag of USUS
Related business
Manufacturer
SpaceX/Seattle
Mission
Operational Commercial Communications
Bus & Motor
STARLINK V2MO, Unknown motor
Mass
575 kg wet, ~530 kg dry
Launch date (UTC)
2025-10-07 (4 months ago)
Launch vehicle
FALCON 9
Launch site
Air Force Eastern Test Range (AFETR)
Object type
Payload
Rocket body
Debris
Shape & HBR
Box + 2 Pan, 17.7 m
Radar Cross Section
36.964 m²

Expand to show TLE details & history
Last TLE update: 2 days ago

TLE from 2 days ago
0 STARLINK-34853
1 65892U 25224L   26021.98046148  .00048245  00000-0  16323-2 0  9996
2 65892  53.1577 228.2617 0001193 100.1824 259.9311 15.30163447 17651
Epoch: 2026-01-21T23:31Z
TLE epoch observation values (Epoch: 2026-01-21T23:31:51.871Z)
Latitude
-0.00007°
Longitude
113.95533°
Altitude
476.367 km
Speed
7.629 km/s
True Right ascension
15h 13m 02s
True Declination
0° 00' 00"
Sunlit
Object was in daylight at epoch
Visualization orbit readout
Latitude
Unknown
Longitude
Unknown
Altitude
Unknown
Speed
Unknown
Apparent Right ascension
Unknown
Apparent Declination
Unknown
Sunlit
N/A
Visualization observer readout
Local Sidereal Time
21:50:37
Azimuth
Unknown
Elevation
Unknown
Doppler factor
Unknown
Orbital elements
Apogee altitude
476.399 km
Perigee altitude
474.763 km
Semi-major axis
6,853.718 km
Eccentricity
0.00012
Inclination
53.1577°
RAAN
228.2617°
Arg. of periapsis
100.1824°
True anomaly
259.91764°
Mean anomaly
259.9311°
Eccentric anomaly
259.92437°
Mean motion
3.8252 °/min
Orbital period
94.11 mins
BSTAR
0.0016323
Loading maneuver chart data...
Computing Atmospheric mass density...
Loading historical data...
Loading historical data...
Loading historical data...
Loading historical data...
Loading historical data...
Loading historical data...
Loading historical data...

Documentation

Showing up to 5 results
|